COSMOS 2486

导读 | 星芒AI

COSMOS 2486 是一颗由俄罗斯发射的军用卫星,于2013年12月25日使用联盟号火箭从普列谢茨克航天发射场发射升空。该卫星属于俄罗斯的GLONASS导航系统,用于增强全球定位和导航能力。COSMOS 2486 运行在中地球轨道,设计用于提供高精度的定位、导航和时间同步服务,支持军事和民用应用。其发射体现了俄罗斯在空间技术和军事现代化方面的持续投入。

基本信息
目录编号:
39177
目录名称:
COSMOS 2486
国际标识:
2013-028A
轨道中心:
EARTH
卫星名称:
COSMOS 2486
卫星全名:
--
卫星状态:
在轨 (已飞行4652 天)
发射日期:
2013-06-07 UTC
国别 :
俄罗斯(独联体) (CIS)
星等 :
--
轨道信息
数据来源 国际轨道数据 AOE轨道数据
星历时间 2026-03-03T06:03:10+0800
8小时前
查看轨道信息
2026-02-27T14:00:00+0800
4天前
查看轨道信息
半长轴 7083.803km 7083.799km
偏心率 0.00109 0.0011195
轨道倾角 98.002° 98.002°
近地点辐角 354.649° 4.559°
升交点赤经 33.524° 30.005°
平近点角 5.459° 214.451°
近地点 697.944km 697.731km
远地点 713.388km 713.593km
周期 98.892分钟 98.892分钟
每日圈数 14.561398 14.561412
详细信息
使用方式:
暂无
2D轨道图
3D轨道图
轨道高度分析图
轨道倾角分析图
轨道综合分析图
查看轨道综合分析图